Flag for Pakistan Weather past 2 weeks in Peshawar, Pakistan

Now
64 °F

Broken clouds.


Feels Like: 64 °F
Forecast: 47 / 54 °F
Wind: 9 mph from Northwest

Location: Peshawar Airport

Current Time: Mar 4, 2015 at 4:15:18 PM

Latest Report: Mar 4, 2015 at 4:00 PM


Visibility: 2 mi

Pressure: 29.95 "Hg

Humidity: 49%

Dew point: 45 °F

Location of PeshawarLocation

Historic Weather in Peshawar — Graph

°F

Peshawar temperature yesterday

Maximum temperature yesterday: 61 °F (at 3:00 PM)
Minimum temperature yesterday: 50 °F (at 1:00 PM)
Average temperature yesterday: 54 °F

Past Weeks' High & Low Weather Summary

 TemperatureHumidityPressure
High77 °F (Feb 22, 2:00 PM)100% (Feb 23, 11:00 AM)30.15 "Hg (Feb 23, 11:00 AM)
Low46 °F (Feb 27, 7:00 AM)31% (Feb 27, 3:00 PM)29.56 "Hg (Feb 26, 12:00 AM)
Average59 °F72%29.96 "Hg
* Reported Feb 17 3:00 PM — Mar 4 3:00 PM, Peshawar, Weather by CustomWeather, © 2015

Note: Actual official high and low records may vary slightly from our data, if they occured in-between our weather recording intervals... More about our weather records

Advertising

Peshawar weather history for previous 24 hours

 ConditionsComfort  
Time TempWeatherWind HumidityBarometerVisibility
3:00 PM
Wed, Mar 4
63 °FBroken clouds.9 mph52%29.95 "Hg2 mi
2:00 PM61 °FCool.N/A72%29.95 "HgN/A
12:00 PM61 °FScattered clouds.5 mph55%30.01 "Hg2 mi
11:00 AM59 °FPartly sunny.No wind59%30.01 "Hg2 mi
10:00 AM57 °FScattered clouds.No wind63%30.01 "Hg2 mi
9:00 AM54 °FFog.No wind67%30.01 "Hg3 mi
8:00 AM48 °FFog.5 mph82%29.98 "Hg2 mi
7:00 AM46 °FFog.No wind87%29.98 "Hg2 mi
6:00 AM46 °FFog.5 mph93%29.95 "Hg2 mi
5:00 AM46 °FFog.5 mph93%29.95 "Hg2 mi
3:00 AM48 °FFog.7 mph87%29.98 "Hg2 mi
2:00 AM48 °FFog.5 mph87%29.98 "Hg2 mi
1:00 AM50 °FFog.5 mph88%30.01 "Hg2 mi
12:00 AM50 °FFog.5 mph88%30.01 "Hg2 mi
11:00 PM
Tue, Mar 3
52 °FFog.5 mph82%30.01 "Hg2 mi
10:00 PM52 °FFog.5 mph82%30.01 "Hg2 mi
9:00 PM52 °FFog.5 mph82%30.01 "Hg2 mi
7:00 PM54 °FLight rain. Passing clouds.12 mph77%30.01 "Hg2 mi
6:00 PM57 °FRain. Partly sunny.12 mph72%30.01 "Hg2 mi
5:00 PM55 °FThunderstorms. Partly sunny.12 mph82%29.98 "Hg2 mi
4:00 PM59 °FRain. Partly sunny.14 mph72%29.98 "Hg2 mi
Weather by CustomWeather, © 2015

See weather overviewHow to use our weather pages